sat.trackr.live / text

‹ back to catalog

STARLINK-34899

NORAD 65323 · 2025-189A

PAYLOAD ACTIVE UNKNOWN

§ Identity

Operator
Country
US
Launch date
2025-08-27
Launch site
AFETR
Launch vehicle
Mass (kg)
RCS (m²)

Purposes: comms

External: N2YO · Heavens-Above · Gunter

§ Orbital elements

Epoch: 2026-05-25T04:26:30.816096Z

Period
94.01 min
Inclination
53.1582°
Eccentricity
0.0001310
Mean motion
15.31717904 rev/d
Perigee alt
469.8 km
Apogee alt
471.6 km
Semi-major
6,848.8 km
B*
4.8913e-4
RAAN
211.0541°
Arg perigee
79.4664°
Mean anomaly
280.6485°
Rev number
4,282

§ Raw data

STARLINK-348991 65323U 25189A   26145.18507889  .00014852  00000+0  48913-3 0  99952 65323  53.1582 211.0541 0001310  79.4664 280.6485 15.31717904 42827

JSON: /api/v1/satellites/65323 · /tle

For live sub-satellite position, see the globe view (requires WebGL).

§ Visibility from observer

Set your observer location to see the next 7 days of passes ≥ 10°. The values pass through the URL so the page stays shareable.

No JS? Fill the form by hand. The geolocation button needs JavaScript.